Mukdahan, Thailand

2:17 PM ICT on August 26, 2016 (GMT +0700)
Nakhon Phanom | | Change Station

Elev 584 ft 17.38 °N, 104.64 °E | Updated 17 minutes ago

Scattered Clouds
Scattered Clouds
90 °F
Feels Like 105 °F
N
4
Wind Variable Wind from Variable

Today
High -- | Low -- °F
--% Chance of Precip.
Yesterday
High -- | Low -- °F
Precip. -- in
Pressure 29.68 in
Visibility 6.2 miles
Clouds Few 2000 ft
Scattered Clouds 2500 ft
Heat Index 105 °F
Dew Point 79 °F
Humidity 70%
Rainfall 0.00 in
Snow Depth Not available.
5:47 AM 6:18 PM
Last Quarter, 37% visible
METAR VTUW 260700Z VRB03KT 9999 FEW020TCU SCT025 32/26 Q1005
Pressure 29.68 in
Visibility 6.2 miles
Clouds Few 2000 ft
Scattered Clouds 2500 ft
Heat Index 105 °F
Dew Point 79 °F
Humidity 70%
Rainfall 0.00 in
Snow Depth Not available.
5:47 AM 6:18 PM
Last Quarter, 37% visible
METAR VTUW 260700Z VRB03KT 9999 FEW020TCU SCT025 32/26 Q1005

10-Day Weather Forecast

No radar image for this location.
×

Almanac

Astronomy

Aug. 26, 2016 Rise Set
Actual Time
Civil Twilight
Nautical Twilight
Astronomical Twilight
Moon
Length of Visible Light
Length of Day
Tomorrow will be .
, % of the Moon is Illuminated

Today's Extremes

Country Highs Country Lows

Community

WunderPhotos

Upload Photos

1,935,062 photos uploaded!

WunderBlog® & News

Nearby

Air Quality

  Air Quality AQ Index Pollutant
Not available.

Snow Depth

Station Depth Elevation

Earthquake Activity

City Distance Mag. Time & Date
Minimum magnitude displayed is 2.5.

Coastal Water Temperatures

Place Temperature

Stations

Nearby Weather Stations

Station Location Temp. Windchill Dew Point Humidity Wind Precip. Elev Updated Type